Temp
-4 -5 -6 -6 -6 -7 -8 -8 -8 -9 -10 -10 -10 -11 -11 -12 -13 -14 -14 -14 -14 -14 -15 -15 -15 -15 -15 -14 -14 -14 -14 -14 -14 -14 -14 -13 -12 -13 -13 -13 -11 -10 -10
-4 -5 -7 -8 -8 -9 -9 -9 -9 -10 -10 -10 -11 -12 -13 -14 -14 -15 -15 -15 -15 -15 -16 -16 -16 -16 -16 -16 -16 -15 -15 -15 -15 -15 -14 -14 -14 -13 -14 -14 -13 -12 -12
-7 -8 -9 -9 -9 -9 -10 -10 -11 -11 -12 -12 -11 -13 -13 -15 -16 -16 -16 -16 -16 -17 -17 -17 -17 -17 -17 -17 -17 -16 -16 -16 -16 -16 -15 -15 -16 -15 -15 -14 -14 -13 -13
-8 -9 -10 -10 -10 -10 -10 -11 -11 -12 -13 -13 -13 -13 -15 -15 -16 -16 -16 -17 -17 -17 -17 -17 -17 -17 -17 -18 -18 -17 -17 -17 -17 -17 -17 -17 -17 -16 -16 -16 -15 -15 -14
-9 -10 -10 -10 -11 -10 -11 -11 -11 -13 -13 -13 -14 -14 -15 -16 -16 -17 -17 -17 -17 -17 -17 -17 -17 -17 -18 -18 -18 -18 -18 -17 -17 -17 -17 -17 -16 -16 -16 -15 -15 -14 -15
-10 -11 -11 -11 -11 -11 -12 -11 -13 -13 -13 -15 -15 -14 -15 -16 -17 -17 -17 -17 -17 -17 -18 -18 -18 -18 -18 -18 -18 -18 -18 -18 -18 -18 -17 -17 -16 -16 -16 -16 -15 -15 -15
-11 -11 -12 -12 -12 -12 -12 -13 -14 -13 -14 -14 -14 -15 -16 -17 -17 -17 -17 -17 -18 -18 -18 -18 -18 -18 -19 -18 -18 -18 -19 -19 -19 -19 -18 -17 -17 -17 -16 -16 -16 -16 -16
-11 -11 -12 -13 -13 -13 -13 -13 -14 -14 -14 -14 -15 -15 -17 -17 -17 -17 -17 -17 -18 -18 -18 -19 -19 -19 -19 -19 -19 -19 -19 -19 -19 -19 -19 -18 -17 -17 -17 -16 -16 -16 -16
-12 -12 -13 -13 -13 -13 -14 -13 -15 -15 -14 -15 -15 -16 -17 -17 -17 -17 -17 -17 -18 -18 -19 -19 -19 -19 -20 -20 -20 -19 -19 -19 -19 -19 -18 -17 -17 -17 -17 -17 -17 -17 -16
-13 -13 -14 -13 -13 -14 -14 -14 -15 -15 -15 -15 -16 -17 -16 -16 -17 -17 -17 -18 -18 -18 -18 -19 -19 -20 -20 -19 -20 -20 -19 -19 -19 -19 -18 -18 -18 -18 -17 -17 -17 -16 -16
-13 -13 -13 -13 -14 -14 -14 -15 -15 -15 -15 -15 -16 -16 -17 -17 -17 -17 -17 -18 -18 -18 -18 -19 -19 -19 -20 -20 -20 -20 -19 -19 -19 -19 -18 -18 -18 -18 -17 -17 -17 -17 -16
-13 -13 -13 -13 -14 -14 -15 -15 -16 -15 -15 -16 -16 -17 -17 -17 -17 -17 -17 -18 -18 -18 -18 -19 -19 -19 -20 -20 -20 -20 -19 -19 -19 -19 -18 -18 -18 -18 -18 -18 -18 -17 -17
-14 -13 -13 -13 -14 -15 -15 -16 -15 -15 -15 -16 -16 -17 -17 -17 -17 -17 -17 -18 -18 -18 -18 -18 -19 -19 -19 -20 -20 -20 -20 -20 -19 -19 -18 -18 -18 -18 -18 -18 -18 -18 -17
-14 -13 -13 -14 -14 -15 -16 -15 -15 -15 -16 -16 -17 -17 -17 -17 -17 -17 -17 -17 -18 -18 -18 -18 -18 -19 -19 -19 -19 -19 -19 -19 -19 -19 -18 -18 -18 -18 -18 -18 -18 -18 -17
-13 -13 -14 -14 -15 -15 -15 -15 -15 -15 -16 -16 -17 -17 -17 -17 -17 -17 -17 -17 -17 -17 -18 -18 -18 -18 -18 -19 -19 -19 -19 -19 -19 -19 -18 -18 -18 -18 -18 -18 -17 -17 -17
-14 -14 -14 -15 -15 -15 -15 -15 -16 -16 -16 -17 -17 -17 -17 -17 -17 -17 -17 -18 -18 -18 -17 -18 -18 -18 -18 -18 -18 -18 -18 -18 -18 -18 -18 -18 -18 -18 -18 -17 -17 -17 -17
-14 -14 -15 -15 -15 -15 -15 -16 -16 -16 -16 -16 -17 -17 -17 -17 -17 -17 -18 -18 -18 -18 -17 -17 -18 -18 -18 -17 -17 -17 -18 -18 -18 -18 -18 -18 -18 -17 -18 -18 -17 -17 -17
-14 -14 -15 -15 -15 -15 -16 -16 -16 -16 -16 -16 -17 -17 -17 -17 -17 -18 -18 -18 -18 -18 -18 -18 -18 -18 -18 -18 -18 -18 -18 -18 -18 -18 -18 -17 -17 -17 -17 -17 -17 -17 -17
-14 -15 -15 -15 -15 -15 -16 -16 -16 -16 -16 -17 -17 -17 -18 -18 -18 -18 -18 -18 -18 -18 -18 -18 -18 -18 -18 -18 -18 -18 -18 -18 -17 -17 -17 -17 -17 -17 -17 -17 -17 -17 -17
-15 -15 -15 -15 -15 -16 -16 -16 -16 -16 -16 -17 -17 -17 -18 -18 -18 -18 -18 -18 -18 -18 -18 -18 -19 -18 -18 -18 -18 -18 -18 -18 -17 -17 -17 -17 -17 -17 -17 -16 -16 -16 -16
-15 -15 -15 -15 -16 -16 -16 -16 -16 -16 -16 -17 -17 -17 -18 -18 -18 -18 -18 -18 -18 -18 -18 -19 -19 -19 -19 -19 -19 -19 -18 -18 -18 -17 -17 -17 -17 -17 -17 -17 -16 -16 -16
-15 -15 -15 -16 -16 -16 -16 -16 -16 -16 -16 -17 -17 -17 -18 -18 -18 -18 -18 -19 -19 -19 -19 -19 -19 -19 -19 -19 -19 -19 -19 -18 -18 -18 -18 -17 -17 -17 -17 -17 -17 -16 -16
-15 -16 -16 -16 -16 -16 -16 -16 -16 -16 -17 -17 -17 -17 -18 -18 -18 -18 -18 -19 -19 -19 -19 -19 -19 -19 -19 -19 -19 -19 -19 -19 -19 -18 -18 -18 -18 -18 -17 -17 -17 -17 -16
-15 -16 -16 -16 -16 -16 -16 -16 -16 -17 -17 -17 -17 -17 -18 -18 -18 -18 -18 -19 -19 -19 -20 -19 -19 -19 -20 -20 -20 -20 -20 -20 -19 -19 -19 -18 -18 -18 -18 -18 -17 -17 -17
-16 -16 -16 -16 -16 -16 -16 -16 -16 -17 -17 -17 -17 -18 -18 -18 -18 -19 -19 -19 -19 -19 -19 -20 -20 -20 -20 -20 -20 -20 -20 -20 -20 -19 -19 -19 -19 -19 -18 -18 -18 -18 -18
-16 -16 -16 -16 -16 -16 -16 -16 -17 -17 -17 -17 -18 -18 -18 -18 -18 -19 -19 -19 -19 -19 -20 -20 -20 -20 -20 -20 -20 -20 -20 -20 -20 -20 -20 -19 -19 -19 -19 -19 -18 -18 -18
Height
3104 3097 3091 3085 3077 3070 3066 3060 3054 3048 3042 3035 3028 3021 3014 3007 3001 2996 2992 2988 2985 2981 2978 2975 2973 2970 2968 2966 2964 2962 2960 2958 2956 2955 2956 2956 2957 2958 2958 2958 2958 2960 2962
3092 3086 3080 3072 3065 3060 3054 3048 3042 3038 3030 3023 3018 3013 3007 3000 2994 2989 2984 2980 2976 2973 2969 2966 2963 2960 2958 2956 2954 2952 2949 2947 2945 2944 2945 2947 2949 2950 2950 2952 2953 2953 2954
3081 3075 3070 3064 3057 3050 3044 3037 3030 3027 3021 3016 3009 3004 2999 2992 2986 2982 2978 2974 2970 2966 2962 2957 2953 2950 2947 2944 2941 2940 2939 2937 2935 2933 2932 2935 2937 2940 2942 2944 2945 2946 2947
3074 3068 3063 3057 3049 3040 3035 3029 3022 3016 3013 3008 3001 2995 2991 2985 2980 2976 2971 2967 2962 2957 2951 2946 2942 2938 2934 2931 2929 2927 2927 2926 2926 2925 2924 2923 2925 2929 2932 2932 2935 2937 2939
3068 3061 3054 3047 3040 3034 3028 3021 3013 3007 3005 2999 2993 2988 2983 2977 2973 2968 2963 2957 2951 2945 2939 2933 2929 2925 2921 2919 2915 2913 2914 2913 2913 2913 2913 2914 2915 2918 2921 2922 2923 2926 2931
3060 3053 3044 3038 3033 3026 3019 3011 3006 3002 2996 2992 2987 2982 2976 2971 2965 2959 2953 2948 2941 2933 2925 2920 2915 2911 2907 2904 2903 2903 2903 2902 2903 2902 2902 2903 2905 2907 2909 2910 2911 2913 2918
3050 3041 3035 3030 3024 3018 3011 3004 3000 2995 2990 2986 2981 2976 2971 2964 2958 2950 2943 2937 2930 2922 2915 2908 2903 2898 2895 2892 2891 2890 2891 2891 2892 2892 2892 2894 2895 2897 2898 2901 2901 2902 2904
3040 3034 3028 3021 3015 3009 3004 2998 2993 2989 2984 2979 2975 2969 2964 2958 2951 2944 2937 2928 2920 2913 2906 2899 2892 2887 2884 2882 2881 2880 2881 2881 2882 2882 2882 2885 2885 2888 2888 2890 2891 2892 2894
3031 3026 3020 3012 3005 3000 2996 2989 2987 2982 2978 2974 2969 2964 2957 2951 2944 2935 2928 2920 2911 2904 2897 2891 2885 2880 2877 2875 2872 2871 2872 2872 2872 2873 2874 2875 2876 2878 2879 2880 2882 2883 2885
3024 3018 3012 3005 2999 2993 2988 2985 2980 2976 2973 2969 2963 2957 2951 2944 2936 2928 2920 2909 2901 2896 2891 2885 2879 2874 2871 2868 2866 2865 2864 2864 2864 2865 2866 2867 2868 2870 2871 2872 2874 2875 2877
3017 3012 3005 2998 2992 2987 2983 2980 2976 2972 2968 2963 2957 2951 2945 2938 2930 2921 2912 2903 2895 2890 2884 2878 2873 2869 2866 2863 2861 2859 2858 2858 2858 2858 2859 2860 2861 2863 2864 2865 2866 2867 2869
3011 3003 2998 2992 2986 2981 2978 2974 2970 2967 2963 2957 2952 2947 2941 2934 2925 2916 2907 2899 2893 2886 2880 2875 2869 2865 2862 2859 2856 2854 2853 2852 2852 2853 2854 2855 2856 2858 2859 2860 2860 2861 2862
3002 2996 2990 2984 2980 2975 2971 2968 2965 2961 2957 2951 2946 2942 2936 2929 2921 2913 2904 2897 2891 2885 2879 2873 2868 2864 2860 2856 2853 2851 2849 2848 2849 2850 2851 2853 2854 2855 2856 2857 2858 2859 2859
2994 2988 2983 2978 2973 2970 2967 2963 2960 2957 2952 2946 2942 2937 2931 2925 2917 2910 2902 2895 2890 2884 2879 2873 2868 2863 2859 2856 2853 2850 2848 2848 2848 2849 2850 2851 2853 2854 2855 2856 2857 2857 2857
2987 2981 2976 2972 2968 2965 2961 2959 2956 2952 2947 2942 2938 2933 2927 2922 2915 2906 2898 2892 2887 2882 2878 2873 2868 2864 2860 2857 2854 2851 2849 2848 2848 2848 2849 2850 2851 2853 2854 2854 2855 2855 2855
2980 2975 2970 2967 2963 2960 2958 2954 2951 2947 2943 2939 2935 2930 2925 2919 2913 2906 2898 2891 2886 2882 2877 2873 2868 2865 2861 2858 2855 2852 2850 2849 2848 2847 2848 2849 2850 2851 2852 2853 2854 2854 2854
2973 2969 2965 2961 2958 2955 2953 2950 2948 2944 2939 2936 2932 2927 2922 2917 2911 2904 2898 2892 2886 2882 2877 2873 2869 2866 2863 2860 2857 2855 2853 2851 2848 2847 2847 2848 2848 2849 2851 2852 2852 2852 2853
2966 2962 2960 2956 2954 2951 2948 2945 2943 2939 2936 2932 2928 2923 2919 2914 2909 2904 2898 2892 2887 2882 2877 2873 2870 2867 2864 2862 2859 2856 2854 2851 2849 2847 2846 2846 2847 2848 2849 2850 2850 2850 2851
2960 2957 2955 2952 2949 2946 2943 2941 2938 2935 2932 2928 2924 2920 2916 2911 2907 2902 2897 2893 2887 2882 2877 2874 2871 2868 2865 2863 2860 2857 2855 2853 2851 2849 2847 2846 2847 2847 2847 2848 2848 2848 2848
2954 2952 2950 2947 2944 2941 2939 2937 2934 2932 2928 2925 2921 2917 2913 2909 2905 2901 2896 2892 2887 2882 2878 2874 2871 2868 2865 2863 2861 2858 2856 2854 2852 2850 2849 2847 2846 2846 2846 2846 2845 2845 2845
2949 2947 2945 2942 2939 2937 2935 2933 2930 2928 2925 2922 2918 2915 2911 2907 2903 2899 2894 2890 2886 2881 2877 2874 2870 2867 2865 2862 2860 2858 2856 2854 2852 2850 2849 2848 2846 2845 2845 2844 2844 2843 2842
2945 2942 2940 2937 2934 2932 2930 2928 2926 2924 2921 2918 2915 2911 2908 2904 2900 2896 2892 2888 2884 2880 2877 2873 2870 2866 2864 2861 2859 2857 2855 2853 2851 2850 2848 2847 2845 2844 2844 2843 2842 2841 2840
2941 2938 2935 2933 2930 2928 2926 2924 2922 2920 2917 2915 2912 2908 2905 2901 2897 2893 2889 2886 2882 2878 2875 2871 2868 2865 2862 2859 2857 2855 2853 2851 2850 2848 2847 2845 2844 2843 2842 2841 2840 2839 2838
2936 2933 2931 2928 2925 2923 2921 2920 2918 2916 2914 2911 2908 2905 2902 2898 2894 2891 2887 2883 2879 2876 2872 2869 2866 2863 2860 2857 2855 2853 2851 2849 2847 2846 2845 2843 2842 2841 2839 2838 2838 2836 2836
2932 2930 2927 2924 2921 2919 2917 2915 2914 2911 2909 2907 2904 2901 2898 2895 2892 2888 2884 2880 2876 2873 2869 2865 2863 2860 2857 2855 2852 2850 2848 2846 2844 2842 2841 2840 2839 2838 2837 2836 2835 2834 2833
2927 2925 2922 2919 2917 2914 2912 2911 2909 2907 2905 2902 2900 2897 2895 2892 2889 2885 2882 2878 2873 2869 2865 2862 2858 2856 2853 2851 2849 2846 2844 2842 2840 2839 2837 2836 2835 2834 2833 2832 2831 2831 2830
Wind_Speed
47 44 43 43 47 45 37 46 53 47 46 45 46 48 46 43 39 35 34 33 32 33 32 31 32 33 33 33 35 34 33 28 33 39 35 33 30 24 21 19 26 27 26
43 42 42 45 44 31 47 56 57 45 41 42 49 48 43 39 37 36 34 33 33 32 32 32 32 33 35 36 37 39 39 40 40 38 38 38 39 31 28 25 24 25 16
42 43 41 44 39 50 54 57 47 40 39 49 50 43 46 42 36 34 34 34 34 35 36 38 39 39 38 37 38 36 38 36 36 40 47 46 36 31 28 28 33 32 26
39 43 43 44 46 47 52 52 43 34 44 45 43 43 46 41 35 33 35 36 37 40 41 41 41 40 40 39 37 38 37 39 40 37 35 37 39 36 34 33 30 34 38
40 42 44 44 43 45 52 56 38 38 40 40 38 41 48 41 35 37 40 42 44 45 46 45 44 42 40 37 37 37 37 38 40 43 43 40 37 34 31 31 31 31 32
45 47 40 42 42 49 53 42 27 30 36 38 37 46 45 40 40 42 46 46 47 47 45 43 40 37 34 33 34 36 38 39 39 39 38 34 30 29 30 32 32 31 30
51 42 37 38 44 48 57 27 34 34 35 33 43 42 40 41 45 46 47 48 44 43 41 40 37 33 32 31 30 31 33 36 38 39 37 32 26 24 28 30 32 35 36
43 42 41 42 43 44 33 31 31 32 32 38 39 38 40 40 40 43 44 43 42 38 37 34 32 30 28 28 28 29 28 31 34 36 36 31 30 25 28 29 31 34 36
44 45 43 41 42 39 38 19 31 36 37 37 38 37 34 35 40 43 42 42 39 36 31 28 27 25 23 22 24 25 24 23 26 28 29 28 27 25 26 28 28 30 30
47 50 45 39 36 34 33 36 33 35 36 38 36 32 32 37 41 42 41 43 38 32 28 27 24 22 21 20 19 20 21 20 22 22 22 24 25 23 23 24 24 25 26
48 47 41 36 33 28 28 29 30 32 35 34 30 30 33 38 40 40 42 39 33 31 31 29 24 20 18 19 19 19 19 18 18 18 19 19 19 19 18 20 22 24 25
43 41 38 34 31 29 27 28 29 31 29 28 27 27 32 35 38 38 38 32 29 30 30 26 22 18 16 15 15 15 14 13 12 12 12 11 11 11 11 12 11 13 16
38 38 36 32 29 26 24 23 25 25 26 26 26 27 30 33 35 37 33 28 25 26 25 24 21 18 16 16 16 14 10 7 7 5 5 5 5 5 5 6 5 5 6
33 33 32 30 26 21 20 22 22 22 24 24 24 26 29 32 34 35 30 23 22 23 22 20 19 18 16 15 14 9 6 3 2 2 3 4 4 4 3 3 4 6 7
31 31 28 26 22 21 20 19 20 22 23 23 23 25 27 29 33 35 33 26 23 22 21 20 18 17 14 13 13 12 8 4 3 3 4 4 5 5 4 4 4 5 5
31 29 25 23 21 20 18 18 20 21 22 20 21 22 25 28 30 33 34 28 23 21 20 18 17 14 16 18 17 16 15 12 6 5 5 6 7 6 6 6 4 2 2
30 26 22 21 21 19 18 19 19 19 20 19 20 22 24 27 28 31 32 29 24 21 19 17 14 12 15 15 16 15 13 12 11 5 5 6 8 9 8 7 5 4 3
27 24 19 20 20 18 18 18 19 19 19 19 21 24 25 25 27 27 28 29 25 22 19 16 11 8 11 14 14 14 14 13 12 12 5 4 6 5 6 6 6 7 7
22 21 18 17 18 18 17 18 18 18 19 20 22 23 25 25 25 25 25 26 26 23 20 16 12 8 9 12 13 13 12 11 10 10 10 4 3 6 6 6 6 7 7
20 18 18 18 18 18 17 17 16 16 17 19 21 22 23 23 23 22 22 23 24 24 21 18 16 11 9 9 11 12 11 11 10 9 8 7 5 3 5 7 8 8 8
18 17 19 18 18 18 17 16 15 14 16 18 20 21 22 23 22 22 21 21 21 22 21 19 17 15 13 11 9 10 11 10 9 8 7 6 5 4 4 3 4 4 4
16 17 19 19 19 17 17 15 13 13 15 17 19 21 22 22 22 22 21 20 20 20 19 19 18 16 13 12 12 10 9 10 9 8 8 7 6 5 6 5 5 4 5
15 17 19 19 17 16 15 14 13 13 15 17 18 20 21 21 22 22 22 21 19 18 18 18 17 17 15 13 12 12 10 9 9 8 8 8 8 7 7 6 6 6 6
16 17 19 19 17 16 15 14 13 14 15 16 17 19 19 20 21 22 23 23 21 20 18 17 17 16 15 15 13 12 11 12 12 10 8 8 8 8 8 7 7 7 7
15 16 18 18 17 16 15 14 15 15 16 16 17 18 18 19 20 22 23 24 24 22 20 18 17 17 16 15 14 14 13 12 12 12 11 10 9 9 9 9 8 8 8
15 16 17 18 18 17 16 16 16 16 16 17 16 17 17 18 19 20 22 24 25 25 22 20 18 17 16 16 15 15 14 13 13 12 11 11 10 9 10 10 9 9 9
Wind_Direction
306 305 305 301 299 298 310 318 314 308 310 305 313 318 320 320 316 311 307 302 297 296 296 298 292 288 283 275 268 270 263 260 272 276 275 274 277 268 262 254 231 220 217
311 316 320 320 314 301 316 319 314 309 313 322 326 324 322 318 311 309 310 314 315 313 310 306 299 289 282 279 278 276 278 273 269 270 269 273 281 271 255 250 248 245 233
322 324 323 323 314 308 316 313 303 311 325 327 325 322 327 321 314 312 312 313 313 311 305 299 295 291 288 283 277 268 270 271 274 270 266 269 270 267 264 256 250 243 244
324 324 317 312 307 303 309 314 296 304 325 323 322 322 327 319 316 323 320 315 311 306 303 298 293 289 286 282 278 274 267 267 272 273 277 273 263 257 259 260 247 244 244
323 316 309 313 309 304 307 314 298 316 322 321 317 317 323 320 323 322 318 314 311 308 305 300 296 292 287 281 275 271 267 265 264 266 268 274 268 259 256 253 255 249 242
318 312 303 299 303 306 310 296 319 325 324 317 311 315 324 322 321 317 312 314 312 309 305 302 300 295 289 281 273 268 267 265 267 271 272 272 270 263 258 257 254 252 250
313 319 310 296 294 310 313 316 339 325 318 309 316 322 323 321 318 314 316 315 313 310 309 308 304 298 290 282 274 268 262 260 262 267 270 271 265 258 256 255 254 252 249
324 327 321 316 308 307 310 311 335 322 314 324 322 323 322 317 313 315 318 316 317 314 313 311 307 300 291 287 279 273 266 262 264 266 269 267 266 261 260 257 254 253 253
330 333 328 318 317 314 318 306 322 321 322 320 322 326 314 316 320 322 320 322 321 321 321 318 311 308 303 293 285 278 273 266 261 262 264 268 268 265 261 260 258 258 258
321 327 325 320 317 314 311 313 318 315 316 318 325 317 321 324 326 323 328 326 326 326 324 324 319 311 301 303 293 285 281 275 268 265 263 262 263 262 261 261 260 259 258
320 322 321 323 317 315 315 314 309 307 314 322 318 323 326 327 328 330 331 329 328 331 332 331 327 319 309 305 301 296 289 282 277 270 265 262 262 263 262 261 261 261 261
321 319 321 320 313 310 308 306 304 309 317 317 322 328 326 331 333 334 333 332 332 335 335 336 337 336 329 318 313 307 300 293 281 269 264 261 255 253 253 250 261 265 260
319 317 319 318 317 313 309 307 308 316 320 323 328 331 330 337 339 340 337 334 336 338 340 344 346 343 337 329 328 319 302 278 268 257 232 220 222 222 227 225 226 249 264
317 316 319 321 318 314 311 310 316 320 323 327 330 334 336 341 344 345 344 340 341 342 345 348 351 352 350 352 348 343 338 322 270 239 219 214 216 211 216 247 266 274 282
322 320 323 322 318 317 315 317 318 324 330 331 334 340 338 345 348 351 353 347 346 345 348 350 353 355 2 8 9 22 14 348 302 263 242 224 214 220 231 250 274 283 299
321 321 322 319 317 317 315 315 321 327 330 332 336 344 341 345 349 356 358 351 346 344 346 350 354 4 22 17 10 12 14 9 337 292 256 229 218 225 228 244 253 261 315
317 318 317 314 315 313 314 314 321 327 328 332 336 341 344 345 350 357 358 355 350 347 347 350 356 20 13 9 7 9 8 8 8 344 244 226 226 224 230 241 248 226 243
315 314 318 312 315 313 313 313 321 328 331 333 337 341 343 344 347 354 356 359 354 349 349 352 349 7 12 5 4 6 11 11 9 10 4 236 234 234 232 241 240 236 236
312 316 321 309 313 316 313 315 322 327 332 336 338 341 341 345 345 347 352 356 359 356 353 353 347 341 1 359 359 4 8 8 12 19 24 14 265 256 251 254 252 246 252
317 322 318 315 317 316 314 315 320 327 332 337 341 341 342 345 344 343 345 353 357 360 358 352 348 341 329 338 352 355 359 0 2 9 19 25 30 331 285 273 270 272 272
320 322 319 316 315 315 311 313 318 324 331 338 340 341 342 343 343 343 342 347 353 356 356 355 348 341 332 324 326 338 344 346 348 350 356 357 358 2 338 340 332 315 298
320 322 322 317 312 310 308 311 313 320 328 334 338 341 342 341 344 346 348 344 344 348 350 351 349 345 337 328 317 312 322 331 335 337 337 335 329 332 319 315 316 311 309
316 319 321 317 310 310 307 305 307 314 324 331 337 339 341 342 346 349 350 347 340 338 342 344 343 341 340 335 329 316 300 305 319 323 324 324 320 320 313 310 305 304 299
315 316 319 321 313 309 306 302 302 308 316 326 332 337 340 342 345 347 348 349 345 338 333 333 335 333 332 329 327 322 315 306 299 296 307 315 313 311 308 308 307 303 301
308 311 318 321 316 307 304 300 302 306 312 319 325 333 337 339 342 343 345 347 345 340 334 326 323 323 324 322 319 317 314 309 304 300 294 287 295 305 303 301 300 297 297
310 312 317 320 318 309 302 297 300 304 309 312 316 324 328 333 336 339 344 347 345 340 333 323 315 312 315 314 315 314 312 309 306 302 298 294 291 292 296 299 298 297 296